• Join FlightAware (Why Join?)
  • Login
  • US Flag 
12:44PM EDT


 

Airport Tracker/Info


-or-


 

Live Flight TrackerFlight Track Log ✈ ASQ5738 ✈ 04-May-2013 ✈ KALB - KIAD

Flight Track Log - Related Links

Times and Time Zones

All times are in EDT time to prevent confusion due to time zone crossing. See the ASQ5738 flight status page for this flight to view local times or setup timezone preferences in your user account.

Time Position Orientation Groundspeed Altitude Reporting Facility
EDT Latitude Longitude Course Direction KTS MPH feet Rate Location/Type
10:16AM 42.7653 -73.8089 194° South 154 177 1,200  Level Boston Center
10:17AM 42.8083 -73.8608 318° Northwest 207 238 3,800 2,640 Climbing Boston Center
10:18AM 42.8450 -73.9381 303° West 236 272 7,300 3,000 Climbing Boston Center
10:19AM 42.4468 -74.1132 196° South  Level Estimated
10:19AM 42.8772 -74.0097 302° West 231 266 10,100  Level Boston Center
10:20AM 42.3711 -74.1906 198° South  Level Estimated
10:20AM 42.8969 -74.0839 290° West 231 266 12,200  Level Boston Center
10:21AM 42.2953 -74.2677 194° South  Level Estimated
10:21AM 42.8644 -74.1822 246° West 242 278 14,800  Level Boston Center
10:22AM 42.8294 -74.2775 243° Southwest 272 313 16,800 1,200 Climbing Boston Center
10:23AM 42.7542 -74.2922 188° South 274 315 17,300 660 Climbing Boston Center
10:24AM 42.6633 -74.2442 159° South 314 361 18,200 1,080 Climbing Boston Center
10:25AM 42.5722 -74.1994 160° South 334 384 19,500 1,140 Climbing Boston Center
10:26AM 42.4708 -74.1542 162° South 364 419 20,800 1,260 Climbing Boston Center
10:27AM 42.3486 -74.0947 160° South 381 438 22,300 1,260 Climbing Boston Center
10:28AM 42.2431 -74.0469 161° South 392 451 23,400 1,140 Climbing Boston Center
10:29AM 42.1322 -74.0806 193° South 392 451 24,600 1,380 Climbing Boston Center
10:30AM 42.0214 -74.0972 186° South 403 464 26,200 960 Climbing Boston Center
10:31AM 41.9047 -74.0969 180° South 408 470 26,600 420 Climbing Boston Center
10:33AM 41.6936 -74.0964 180° South 436 502 27,500 420 Climbing New York Center
10:34AM 41.5500 -74.0947 180° South 442 509 28,000 240 Climbing New York Center
10:35AM 41.4231 -74.0939 180° South 442 509 28,000  Level New York Center
10:36AM 41.2961 -74.0931 180° South 447 514 28,000  Level New York Center
10:37AM 41.1686 -74.1061 184° South 460 529 28,000 -60 Level New York Center
10:38AM 41.0867 -74.2094 224° Southwest 435 501 27,900  Descending New York Center
10:39AM 41.0197 -74.3544 239° Southwest 435 501 28,000  Climbing New York Center
10:40AM 40.9531 -74.4883 237° Southwest 447 514 28,000  Level New York Center
10:41AM 40.8925 -74.6278 240° Southwest 447 514 28,000  Level New York Center
10:42AM 40.8481 -74.7706 248° West 437 503 28,000  Level New York Center
10:43AM 40.8033 -74.9214 249° West 437 503 28,000  Level New York Center
10:44AM 40.7606 -75.0669 249° West 437 503 28,000  Level New York Center
10:45AM 40.7133 -75.2172 248° West 437 503 28,000  Level New York Center
10:46AM 40.6661 -75.3647 247° West 437 503 28,000 -1,080 Level New York Center
10:47AM 40.6064 -75.5028 240° Southwest 442 509 25,900 -2,040 Descending New York Center
10:48AM 40.5489 -75.6381 241° Southwest 437 503 23,900 -2,100 Descending New York Center
10:49AM 40.4953 -75.7708 242° Southwest 425 489 21,800 -2,040 Descending New York Center
10:50AM 40.4358 -75.8919 237° Southwest 408 470 20,000 -900 Descending New York Center
10:51AM 40.3411 -76.0103 224° Southwest 413 475 20,000  Level New York Center
10:52AM 40.2569 -76.1181 224° Southwest 424 488 20,000 -420 Level New York Center
10:53AM 40.1750 -76.2258 225° Southwest 429 494 19,200 -900 Descending New York Center
10:54AM 40.1078 -76.3264 229° Southwest 424 488 18,300 -900 Descending New York Center
10:55AM 40.0428 -76.4625 238° Southwest 411 473 17,500 -900 Descending New York Center
10:57AM 39.9673 -76.5880 232° Southwest  Level FlightAware Approximate
10:57AM 39.9333 -76.7000 232° Southwest 337 388 15,600  Level Potomac TRACON
10:58AM 39.8833 -76.8000 237° Southwest 331 381 15,000 -480 Descending Potomac TRACON
10:59AM 39.8333 -76.9000 237° Southwest 330 380 14,700 -540 Descending Potomac TRACON
11:00AM 39.7833 -77.0000 237° Southwest 323 372 14,000 -600 Descending Potomac TRACON
11:01AM 39.7500 -77.1000 247° West 324 373 13,500 -1,020 Descending Potomac TRACON
11:02AM 39.7000 -77.2000 237° Southwest 320 368 12,000 -1,500 Descending Potomac TRACON
11:03AM 39.6500 -77.3000 237° Southwest 311 358 10,500 -1,260 Descending Potomac TRACON
11:04AM 39.6000 -77.3833 232° Southwest 293 337 9,500 -1,020 Descending Potomac TRACON
11:06AM 39.4750 -77.3583 171° South  Level FlightAware Approximate
11:06AM 39.4667 -77.4500 171° South 281 323 7,500  Level Potomac TRACON
11:07AM 39.4000 -77.4500 180° South 270 311 6,600 -960 Descending Potomac TRACON
11:08AM 39.3167 -77.4500 180° South 253 291 5,600 -840 Descending Potomac TRACON
11:09AM 39.2667 -77.4500 180° South 215 247 5,000 -300 Descending Potomac TRACON
11:10AM 39.2000 -77.4500 180° South 197 227 5,100 60 Climbing Potomac TRACON